Millington, TN

5:21 PM CDT on August 17, 2017 (GMT -0500)
Millington Municipal

Weather History for KNQA - March, 2014

Change the Weather History Date:

Sunday, March 2, 2014

  Actual Average Record
Temperature  
Mean Temperature 45 °F -  
Max Temperature 60 °F 55 °F 82 °F (2012)
Min Temperature 30 °F 38 °F 21 °F (2009)
Degree Days  
Heating Degree Days 20    
Moisture  
Dew Point 41 °F    
Average Humidity 90    
Maximum Humidity 100    
Minimum Humidity 76    
Precipitation  
Precipitation 0.00 in - - ()
Sea Level Pressure  
Sea Level Pressure 30.07 in    
Wind  
Wind Speed 5 mph (North)    
Max Wind Speed 16 mph    
Max Gust Speed -    
Visibility 6 miles    
Events Rain    
Averages and records for this station are not official NWS values.
T = Trace of Precipitation, MM = Missing Value Source: NWS Daily Summary

Daily Weather History Graph

Daily Weather History Graph

Search for Another Location

Airport or City:

Trip Planner

Search our weather history database for the weather conditions in past years. The results will help you decide how hot, cold, wet, or windy it might be!

Date:

Astronomy

Mar. 02, 2014 Rise Set
Actual Time 6:27 AM CST 5:55 PM CST
Civil Twilight 6:02 AM CST 6:21 PM CST
Nautical Twilight 5:32 AM CST 6:50 PM CST
Astronomical Twilight 5:03 AM CST 7:20 PM CST
Moon 7:03 AM CST (3/2) 7:46 PM CST (3/2)
Length of Visible Light 12h 19m
Length of Day
11h 28m
Waxing Crescent, 3% of the Moon is Illuminated
Mar 2
Waxing Crescent
Mar 8
First Quarter
Mar 16
Full
Mar 23
Last Quarter
Mar 30
New

Hourly Weather History & Observations

Time (CST) Temp. Windchill Dew Point Humidity Pressure Visibility Wind Dir Wind Speed Gust Speed Precip Events Conditions
2:15 AM 59.0 °F - 53.6 °F 82% 30.01 in 10.0 mi Calm Calm - N/A   Overcast
2:35 AM 60.8 °F - 53.6 °F 77% 30.02 in 10.0 mi NNW 3.5 mph - N/A   Overcast
2:55 AM 57.2 °F - 51.8 °F 82% 30.00 in 10.0 mi NNE 3.5 mph - N/A   Mostly Cloudy
3:15 AM 57.2 °F - 53.6 °F 88% 30.01 in 10.0 mi Calm Calm - N/A   Mostly Cloudy
3:35 AM 60.8 °F - 53.6 °F 77% 30.01 in 10.0 mi Calm Calm - N/A   Overcast
3:55 AM 59.0 °F - 51.8 °F 77% 30.03 in 10.0 mi NW 8.1 mph - N/A   Overcast
4:15 AM 55.4 °F - 48.2 °F 77% 30.03 in 10.0 mi NNW 8.1 mph - N/A   Overcast
4:35 AM 51.8 °F - 46.4 °F 82% 30.03 in 7.0 mi Variable 4.6 mph - N/A   Overcast
4:55 AM 50.0 °F - 46.4 °F 87% 30.03 in 10.0 mi NW 3.5 mph - N/A   Overcast
5:30 AM 50.0 °F - 44.6 °F 82% 30.03 in 10.0 mi WNW 3.5 mph - N/A   Overcast
5:55 AM 48.2 °F - 42.8 °F 82% 30.04 in 10.0 mi NNW 4.6 mph - N/A   Overcast
6:55 AM 46.4 °F 42.4 °F 39.2 °F 76% 30.06 in 9.0 mi NW 8.1 mph - N/A   Overcast
7:25 AM 41.0 °F 33.5 °F 39.2 °F 93% 30.11 in 4.0 mi NW 13.8 mph - N/A   Overcast
7:55 AM 37.4 °F 28.2 °F 35.6 °F 93% 30.14 in 2.0 mi North 16.1 mph - N/A   Overcast
8:55 AM 32.0 °F 23.0 °F 32.0 °F 100% 30.16 in 1.8 mi North 11.5 mph - N/A   Overcast
9:55 AM 32.0 °F 24.2 °F 30.2 °F 93% 30.18 in 1.2 mi NNE 9.2 mph - N/A   Overcast
10:55 AM 33.8 °F 27.0 °F 33.8 °F 100% 30.16 in 1.8 mi NNE 8.1 mph - N/A   Overcast
11:55 AM 33.8 °F 27.0 °F 33.8 °F 100% 30.15 in 1.2 mi NNE 8.1 mph - N/A   Overcast
12:55 PM 33.8 °F 24.8 °F 33.8 °F 100% 30.14 in 1.2 mi North 12.7 mph - N/A   Overcast
1:50 PM 33.8 °F 24.3 °F 33.8 °F 100% 30.12 in 1.5 mi North 13.8 mph - N/A   Overcast
2:50 PM 30.2 °F 21.9 °F 30.2 °F 100% 30.10 in 2.5 mi North 9.2 mph - N/A Rain Light Freezing Rain
3:50 PM 30.2 °F 21.9 °F 30.2 °F 100% 30.06 in 5.0 mi North 9.2 mph - N/A Rain Light Freezing Rain
4:50 PM 32.0 °F 23.0 °F 32.0 °F 100% 30.07 in 2.5 mi North 11.5 mph - N/A Rain Light Rain
5:50 PM 33.8 °F 26.4 °F 32.0 °F 93% 30.07 in 4.0 mi North 9.2 mph - N/A Rain Light Rain
6:50 PM 32.0 °F 24.2 °F 32.0 °F 100% 30.05 in 2.0 mi North 9.2 mph - N/A Rain Light Rain